Weather History for Paganella, Italy

Change the Weather History Date:

Monday, March 3, 2014

  Actual Average Record
Temperature  
Mean Temperature 28 °F -  
Max Temperature 31 °F 30 °F 44 °F (1997)
Min Temperature 24 °F 22 °F 8 °F (2005)
Degree Days  
Heating Degree Days 38    
Moisture  
Dew Point 24 °F    
Average Humidity 87    
Maximum Humidity 100    
Minimum Humidity 72    
Precipitation  
Precipitation 0.00 in 0.05 in - ()
Sea Level Pressure  
Sea Level Pressure 29.31 in    
Wind  
Wind Speed 8 mph ()    
Max Wind Speed 18 mph    
Max Gust Speed -    
Visibility 2.3 miles    
Events Fog , Snow    
Averages and records for this station are not official NWS values.
T = Trace of Precipitation, MM = Missing Value Source: Averaged Metar Reports

Daily Weather History Graph

Daily Weather History Graph

Search for Another Location

Airport:

Trip Planner

Search our weather history database for the weather conditions in past years. The results will help you decide how hot, cold, wet, or windy it might be!

Date:

Astronomy

Mar. 03, 2014 Rise Set
Actual Time 6:51 AM CET 6:04 PM CET
Civil Twilight 6:21 AM CET 6:34 PM CET
Nautical Twilight 5:47 AM CET 7:09 PM CET
Astronomical Twilight 5:12 AM CET 7:44 PM CET
Moon 7:40 AM CET (3/3) 9:00 PM CET (3/3)
Length of Visible Light 12h 13m
Length of Day
11h 13m
Waxing Crescent, 6% of the Moon is Illuminated
Mar 3
Waxing Crescent
Mar 8
First Quarter
Mar 16
Full
Mar 24
Last Quarter
Mar 30
New

Hourly Weather History & Observations

Time (CET) Temp. Windchill Dew Point Humidity Pressure Visibility Wind Dir Wind Speed Gust Speed Precip Events Conditions
12:00 AM 27 °F - 23 °F 77%  in 12 mi South 9.2 mph - - Snow Light Snow
12:55 AM 26.6 °F 19.1 °F 21.2 °F 80% 29.42 in 6.2 mi South 6.9 mph - N/A   Scattered Clouds
1:00 AM 26 °F - 22 °F 79%  in 19 mi South 6.9 mph - -   Partly Cloudy
1:55 AM 24.8 °F 16.9 °F 21.2 °F 86% 29.42 in - South 6.9 mph - N/A   Clear
2:00 AM 25 °F - 21 °F 78%  in 19 mi South 6.9 mph - -   Partly Cloudy
2:55 AM 24.8 °F 16.9 °F 21.2 °F 86% 29.39 in 6.2 mi South 6.9 mph - N/A   Partly Cloudy
3:00 AM 25 °F - 20 °F 75%  in 19 mi South 6.9 mph - -   Scattered Clouds
3:55 AM 24.8 °F 14.0 °F 21.2 °F 86% 29.39 in 6.2 mi South 11.5 mph - N/A   Scattered Clouds
4:00 AM 24 °F - 21 °F 82%  in 12 mi South 11.5 mph - -   Partly Cloudy
4:55 AM 24.8 °F 15.3 °F 21.2 °F 86% 29.36 in 0.0 mi South 9.2 mph - N/A Fog Light Freezing Fog
5:00 AM 24 °F - 22 °F 88%  in 0 mi South 9.2 mph - - Fog Heavy Fog
5:55 AM 24.8 °F 16.1 °F 23.0 °F 93% 29.33 in 0.0 mi SSW 8.1 mph - N/A Fog Light Freezing Fog
6:00 AM 24 °F - 23 °F 95%  in 0 mi SSW 8.1 mph - - Fog Heavy Fog
6:55 AM 24.8 °F 11.9 °F 24.8 °F 100% 29.33 in 0.0 mi South 16.1 mph - N/A Fog Light Freezing Fog
7:00 AM 25 °F - 24 °F 95%  in 0 mi South 16.1 mph - - Fog Heavy Fog
7:55 AM 24.8 °F 11.1 °F 23.0 °F 93% 29.30 in 0.0 mi SSW 18.4 mph - N/A Fog Light Freezing Fog
8:00 AM 24 °F - 24 °F 98%  in 0 mi SSW 18.4 mph - - Fog Heavy Fog
8:55 AM 24.8 °F 11.5 °F 23.0 °F 93% 29.30 in 0.0 mi South 17.3 mph - N/A Fog Light Freezing Fog
9:00 AM 24 °F - 23 °F 96%  in 0 mi South 17.3 mph - - Fog Heavy Fog
9:55 AM 24.8 °F 11.9 °F 24.8 °F 100% 29.30 in 0.0 mi SSW 16.1 mph - N/A Fog Light Freezing Fog
10:00 AM 26 °F - 25 °F 92%  in 0 mi SSW 16.1 mph - - Fog Heavy Fog
10:55 AM 24.8 °F 12.4 °F 24.8 °F 100% 29.30 in 0.0 mi South 15.0 mph - N/A Fog Light Freezing Fog
11:00 AM 26 °F - 25 °F 94%  in 0 mi South 15.0 mph - - Fog Heavy Fog
11:55 AM 24.8 °F 11.9 °F 24.8 °F 100% 29.30 in 0.0 mi South 16.1 mph - N/A Fog Light Freezing Fog
12:00 PM 25 °F - 25 °F 98%  in 0 mi South 16.1 mph - - Fog Heavy Fog
12:55 PM 26.6 °F 15.7 °F 26.6 °F 100% 29.30 in 0.0 mi South 12.7 mph - N/A Fog Light Freezing Fog
1:00 PM 27 °F - 26 °F 94%  in 0 mi South 12.7 mph - - Fog Heavy Fog
1:55 PM 30.2 °F 23.4 °F 28.4 °F 93% 29.30 in 0.0 mi South 6.9 mph - N/A Fog Light Freezing Fog
2:00 PM 30 °F - 28 °F 87%  in 0 mi South 6.9 mph - - Fog Heavy Fog
2:55 PM 28.4 °F 21.2 °F 24.8 °F 86% 29.30 in 0.0 mi South 6.9 mph - N/A Fog Light Freezing Fog
3:00 PM 29 °F - 26 °F 82%  in 0 mi South 6.9 mph - - Fog Heavy Fog
3:55 PM 28.4 °F - 24.8 °F 86% 29.27 in 0.2 mi South 2.3 mph - N/A Fog Light Freezing Fog
4:00 PM 29 °F - 25 °F 80%  in 0 mi South 2.3 mph - - Fog Heavy Fog
4:55 PM 30.2 °F - 24.8 °F 80% 29.27 in 0.6 mi South 2.3 mph - N/A Fog Light Freezing Fog
5:00 PM 29 °F - 25 °F 79%  in 1 mi South 2.3 mph - - Fog Heavy Fog
5:55 PM 28.4 °F - 24.8 °F 86% 29.24 in 1.9 mi South 2.3 mph - N/A Fog Light Freezing Fog
6:00 PM 29 °F - 24 °F 75%  in 2 mi South 2.3 mph - - Fog Heavy Fog
6:55 PM 28.4 °F - 23.0 °F 80% 29.24 in 0.0 mi South 2.3 mph - N/A Fog Light Freezing Fog
7:00 PM 28 °F - 24 °F 77%  in 0 mi South 2.3 mph - - Fog Heavy Fog
7:55 PM 26.6 °F - 23.0 °F 86% 29.27 in 0.0 mi South 2.3 mph - N/A Fog Light Freezing Fog
8:00 PM 27 °F - 23 °F 80%  in 0 mi South 2.3 mph - - Fog Heavy Fog
8:55 PM 26.6 °F 21.2 °F 21.2 °F 80% 29.27 in 0.0 mi South 4.6 mph - N/A Fog Light Freezing Fog
9:00 PM 27 °F - 22 °F 74%  in 0 mi South 4.6 mph - - Fog Heavy Fog
9:55 PM 28.4 °F - 23.0 °F 80% 29.27 in 0.6 mi Calm Calm - N/A Fog Light Freezing Fog
10:00 PM 28 °F - 23 °F 72%  in 1 mi Calm Calm - - Fog Heavy Fog
10:55 PM 26.6 °F - 23.0 °F 86% 29.27 in 0.6 mi Calm Calm - N/A Fog Light Freezing Fog
11:00 PM 27 °F - 22 °F 76%  in 1 mi Calm Calm - - Fog Heavy Fog
11:55 PM 26.6 °F - 23.0 °F 86% 29.27 in 0.2 mi North 2.3 mph - N/A Fog Light Freezing Fog